Regional Weather Roundup
Issued by NWS Cleveland, OH

Home | Current Version | Previous Version | Text Only | Print | Product List | Glossary Off
Versions: 1 2 3 4 5 6 7 8 9 10 11 12 13 14 15 16 17 18 19 20 21 22 23 24 25 26 27 28 29 30 31 32 33 34 35 36 37 38 39 40 41 42 43 44 45 46 47 48 49 50

000
ASUS41 KCLE 032200
RWRCLE
OHIO REGIONAL WEATHER ROUNDUP
NATIONAL WEATHER SERVICE WILMINGTON, OH
600 PM EDT SUN MAY 03 2015

NOTE: "FAIR" INDICATES FEW OR NO CLOUDS BELOW 12,000 FEET WITH NO
SIGNIFICANT WEATHER AND/OR OBSTRUCTIONS TO VISIBILITY.

OHZ001>008-015>018-024>027-034-035-043-044-032300-
   NORTHWEST OHIO

CITY           SKY/WX    TMP DP  RH WIND       PRES   REMARKS
DEFIANCE       MOSUNNY   78  44  29 SW9       30.01S
FINDLAY        MOSUNNY   77  45  32 S14       30.03S
TOLEDO EXPRESS PTSUNNY   77  43  29 S9G18     30.01R
TOLEDO EXEC    MOSUNNY   78  42  27 SW12      30.02S
LIMA           MOSUNNY   76  45  33 S9        30.04S
$$

OHZ009>014-019>023-028>033-038-089-032300-
   NORTHEAST OHIO

CITY           SKY/WX    TMP DP  RH WIND       PRES   REMARKS
CLE-HOPKINS    MOSUNNY   76  43  30 SW12      30.06S
CLE-LAKEFRONT  MOSUNNY   74  43  32 NE6       30.03F
CUY CO. ARPT   MOSUNNY   79  45  29 S8        30.06S
LORAIN-ELYRIA  PTSUNNY   75  43  31 SW15      30.05S
ASHTABULA      MOSUNNY   76  39  26 VRB5      30.07S
AKRON-CANTON   MOSUNNY   74  41  30 S14       30.08R
WOOSTER        NOT AVBL
MANSFIELD      MOSUNNY   74  43  32 SW10G21   30.07F
YOUNGSTOWN     MOSUNNY   74  42  31 SW7       30.07S
$$

OHZ042-051>053-060>062-070>072-077>081-032300-
  SOUTHWEST OHIO

CITY           SKY/WX    TMP DP  RH WIND       PRES   REMARKS
CINC-COVINGTON MOSUNNY   76  47  35 S12       30.07S
CINC-LUNKEN    MOSUNNY   76  49  38 SW9       30.06F
HAMILTON       SUNNY     78  47  33 SW5       30.07S
DAYTON         NOT AVBL
WRIGHT-PAT AFB NOT AVBL
DAYTON GENERAL MOSUNNY   75  46  35 S13       30.06S
WILMINGTON     MOSUNNY   73  44  35 S9        30.07S
$$

OHZ036-037-039>041-045>050-054>059-063>069-073>076-082>088-032300-
  CENTRAL AND SOUTHEAST OHIO

CITY           SKY/WX    TMP DP  RH WIND       PRES   REMARKS
COLUMBUS       MOSUNNY   76  43  30 SW13      30.07S
OSU AIRPORT    MOSUNNY   75  44  33 SW13G20   30.07R
BOLTON FIELD   PTSUNNY   75  46  35 S13G20    30.07S
RICKENBACK AFB NOT AVBL
NEWARK         MOSUNNY   75  46  35 SW10      30.07S
MARION         MOSUNNY   76  44  32 SW12      30.06S
LANCASTER      SUNNY     75  45  34 SW10      30.08S
ZANESVILLE     MOSUNNY   75  42  30 SW9       30.08S
NEW PHILLY     MOSUNNY   78  41  26 SW7       30.08S
$$



USA.gov is the U.S. government's official web portal to all federal, state and local government web resources and services.